WetterOnline ( https://www.wetteronline.ch )

Wetter aktuell Westerwald (in 500m)

Aktuelles Wetter: Bad Marienberg (555m)

6-stündlich | Neueste Meldungen
Ortszeit Temperatur Wetter
Di, 22.10. 8:00 6.7° C wolkig
Di, 22.10. 2:00 7.6° C bedeckt
Mo, 21.10. 20:00 9.5° C bewölkt
Mo, 21.10. 14:00 14.1° C wolkig
Mo, 21.10. 8:00 12.0° C bedeckt
Mo, 21.10. 2:00 12.6° C bewölkt
So, 20.10. 20:00 13.9° C bedeckt
So, 20.10. 14:00 12.1° C Regen
Ortszeit Temperatur Wetter
Di, 22.10. 13:00 10.3° C bewölkt
Di, 22.10. 12:50 10.3° C bewölkt
Di, 22.10. 12:40 10.1° C wolkig
Di, 22.10. 12:30 10.6° C wolkig
Di, 22.10. 12:20 10.6° C wolkig
Di, 22.10. 12:10 10.6° C bewölkt
Di, 22.10. 12:00 10.2° C wolkig
Di, 22.10. 11:30 10.5° C leicht bewölkt
Di, 22.10. 11:00 9.1° C fast wolkenlos
Di, 22.10. 10:30 7.9° C wolkig
Di, 22.10. 10:00 7.9° C bedeckt
Ortszeit Relative Feuchte Sichtweite
Di, 22.10. 8:00 99% 4.6 km
Di, 22.10. 2:00 95% 45 km
Mo, 21.10. 20:00 88% 65 km
Mo, 21.10. 14:00 71% 60 km
Mo, 21.10. 8:00 96% 55 km
Mo, 21.10. 2:00 95% 30 km
So, 20.10. 20:00 82% 60 km
So, 20.10. 14:00 95% 35 km
Ortszeit Relative Feuchte Sichtweite
Di, 22.10. 13:00 79% 55 km
Di, 22.10. 12:50 79% -
Di, 22.10. 12:40 80% -
Di, 22.10. 12:30 79% >70 km
Di, 22.10. 12:20 79% -
Di, 22.10. 12:10 81% -
Di, 22.10. 12:00 79% 55 km
Di, 22.10. 11:30 78% 55 km
Di, 22.10. 11:00 87% 30 km
Di, 22.10. 10:30 95% 17 km
Di, 22.10. 10:00 96% 20 km
Ortszeit Niederschlagsmenge Niederschlagsart
Di, 22.10. 8:00 0.0 l/m2 in 12 Std. -
Di, 22.10. 2:00 0.0 l/m2 in 6 Std. -
Mo, 21.10. 20:00 0.0 l/m2 in 12 Std. -
Mo, 21.10. 14:00 0.0 l/m2 in 6 Std. -
Mo, 21.10. 8:00 0.8 l/m2 in 12 Std. Regen
Mo, 21.10. 2:00 0.5 l/m2 in 6 Std. Regen
So, 20.10. 20:00 3 l/m2 in 12 Std. Regen
So, 20.10. 14:00 2 l/m2 in 6 Std. Regen
Ortszeit Niederschlagsmenge Niederschlagsart
Di, 22.10. 13:00 0.0 l/m2 in 1 Std. -
Di, 22.10. 12:50 keine Meldung -
Di, 22.10. 12:40 keine Meldung -
Di, 22.10. 12:30 0.0 l/m2 in 1 Std. -
Di, 22.10. 12:20 keine Meldung -
Di, 22.10. 12:10 keine Meldung -
Di, 22.10. 12:00 0.0 l/m2 in 1 Std. -
Di, 22.10. 11:30 0.0 l/m2 in 1 Std. -
Di, 22.10. 11:00 0.0 l/m2 in 1 Std. -
Di, 22.10. 10:30 0.0 l/m2 in 1 Std. -
Di, 22.10. 10:00 0.0 l/m2 in 1 Std. -
Ortszeit Stärke Spitze Richtung
km/h Bft. km/h Grad Sektor
Di, 22.10. 8:00 4 1 18 100° O
Di, 22.10. 2:00 7 2 18 210° SW
Mo, 21.10. 20:00 7 2 36 230° SW
Mo, 21.10. 14:00 22 4 35 210° SW
Mo, 21.10. 8:00 17 3 31 160° S
Mo, 21.10. 2:00 15 3 41 160° S
So, 20.10. 20:00 22 4 33 150° SO
So, 20.10. 14:00 15 3 26 150° SO
Ortszeit Stärke Spitze Richtung
km/h Bft. km/h Grad Sektor
Di, 22.10. 13:00 9 2 19 310° NW
Di, 22.10. 12:50 9 2 - 310° NW
Di, 22.10. 12:40 11 2 - 320° NW
Di, 22.10. 12:30 11 2 18 290° W
Di, 22.10. 12:20 11 2 - 290° W
Di, 22.10. 12:10 9 2 - 310° NW
Di, 22.10. 12:00 9 2 19 270° W
Di, 22.10. 11:30 9 2 19 270° W
Di, 22.10. 11:00 4 1 11 200° S
Di, 22.10. 10:30 6 1 9 130° SO
Di, 22.10. 10:00 0 0 4 - -
Ortszeit Untergrenze Bedeckung Gattung
total tief tief mittel hoch
Di, 22.10. 8:00 60 m 7/8 1/8 - - -
Di, 22.10. 2:00 3600 m 8/8 8/8 - - -
Mo, 21.10. 20:00 3600 m 7/8 7/8 - - -
Mo, 21.10. 14:00 4200 m 6/8 6/8 - - -
Mo, 21.10. 8:00 420 m 8/8 8/8 - - -
Mo, 21.10. 2:00 3000 m 7/8 7/8 - - -
So, 20.10. 20:00 3300 m 8/8 8/8 - - -
So, 20.10. 14:00 1230 m 7/8 7/8 - - -
Ortszeit Bedeckungsgrad in Achtel und Wolkenuntergrenze
Di, 22.10. 13:00 7(420m)
Di, 22.10. 12:50 7(420m)
Di, 22.10. 12:40 5(390m)
Di, 22.10. 12:30 6(390m)
Di, 22.10. 12:20 6(390m)
Di, 22.10. 12:10 7(390m)
Di, 22.10. 12:00 5(390m) 7(8700m)
Di, 22.10. 11:30 1(390m) 3(6300m) 5(8700m)
Di, 22.10. 11:00 1(6900m)
Di, 22.10. 10:30 2(3000m) 5(6900m)
Di, 22.10. 10:00 8(2700m)
Ortszeit Luftdruck NN (hPa) Tendenz (hPa in 3 Std.)
Di, 22.10. 8:00 1024 + 0,5
Di, 22.10. 2:00 1024 + 0,6
Mo, 21.10. 20:00 1022 + 1,8
Mo, 21.10. 14:00 1018 + 1,3
Mo, 21.10. 8:00 1014 + 1,6
Mo, 21.10. 2:00 1010 + 1,8
So, 20.10. 20:00 1008 + 1,1
So, 20.10. 14:00 1008 - 0,1
Ortszeit Luftdruck NN (hPa) Tendenz (hPa in 3 Std.)
Di, 22.10. 13:00 1026 + 0,8
Di, 22.10. 12:50 1026 keine Meldung
Di, 22.10. 12:40 1026 keine Meldung
Di, 22.10. 12:30 1026 + 0,8
Di, 22.10. 12:20 1026 keine Meldung
Di, 22.10. 12:10 1026 keine Meldung
Di, 22.10. 12:00 1026 + 0,9
Di, 22.10. 11:30 1025 + 1,5
Di, 22.10. 11:00 1025 + 1,6
Di, 22.10. 10:30 1026 + 1,5
Di, 22.10. 10:00 1025 + 1,8
Ortszeit Schneehöhe (cm)
Di, 22.10. 8:00 0
Di, 22.10. 2:00 0
Mo, 21.10. 20:00 0
Mo, 21.10. 14:00 0
Mo, 21.10. 8:00 0
Mo, 21.10. 2:00 0
So, 20.10. 20:00 0
So, 20.10. 14:00 0
Ortszeit Schneehöhe (cm)
Di, 22.10. 13:00 0
Di, 22.10. 12:50 0
Di, 22.10. 12:40 0
Di, 22.10. 12:30 0
Di, 22.10. 12:20 0
Di, 22.10. 12:10 0
Di, 22.10. 12:00 0
Di, 22.10. 11:30 0
Di, 22.10. 11:00 0
Di, 22.10. 10:30 0
Di, 22.10. 10:00 0
Link zu dieser Seite / Seite empfehlen

Das Wetter in ...